Regional Weather Roundup
Issued by NWS

Home | Current Version | Previous Version | Text Only | Print | Product List | Glossary Off
Versions: 1 2 3 4 5 6 7 8 9 10 11 12 13 14 15 16 17 18 19 20 21 22 23 24 25 26 27 28 29 30 31 32 33 34 35 36 37 38 39 40 41 42 43 44 45 46 47 48 49 50

000
ASUS44 KMEG 030210
RWRTN
TENNESSEE HOURLY STATE WEATHER ROUNDUP
NATIONAL WEATHER SERVICE MEMPHIS TN
800 PM CST MON MAR 02 2015

TNZ002-004-019-021-049-052-054-088>092-030300-
WEST TENNESSEE

CITY           SKY/WX    TMP DP  RH WIND       PRES   REMARKS
MEMPHIS INTL   CLOUDY    42  36  79 E5        30.28S
NWS MEMPHIS      N/A     42 N/A N/A MISG        N/A
JACKSON        CLOUDY    46  34  62 CALM      30.27F
DYERSBURG      CLOUDY    37  18  44 NE7       30.30F WCI  32
UNION CITY     CLOUDY    37  25  60 NE6       30.27F WCI  33
PARIS          CLOUDY    37  25  60 NE8       30.29F WCI  31
LEXINGTON      CLOUDY    46  30  53 E7        30.26F
SAVANNAH       MOCLDY    45  39  81 CALM      30.28F
$$

TNZ008-025-027-028-033-062-065-066-030300-
NORTH MIDDLE TENNESSEE

CITY           SKY/WX    TMP DP  RH WIND       PRES   REMARKS
NASHVILLE      CLOUDY    46  32  58 E3        30.30F
CLARKSVILLE    CLOUDY    42  28  57 E5        30.32F
SMYRNA         CLOUDY    46  32  58 CALM      30.31F
COOKEVILLE       N/A     41  36  81 CALM      30.29S
CROSSVILLE     CLOUDY    41  30  65 CALM      30.29F
$$

TNZ061-075-076-078-094-096-097-030300-
SOUTH MIDDLE TENNESSEE

CITY           SKY/WX    TMP DP  RH WIND       PRES   REMARKS
FAYETTEVILLE   CLOUDY    41  36  81 NE3         N/A
TULLAHOMA      MOCLDY    41  36  81 NE3       30.29F
WINCHESTER     CLOUDY    43  37  81 NE5       30.29F
MCMINNVILLE    CLOUDY    43  36  75 CALM      30.29F
COLUMBIA         N/A     45  37  76 E5        30.27F
SHELBYVILLE    CLOUDY    45  36  70 CALM      30.30F
$$

TNZ017-018-042-046-047-030300-
NORTHEAST TENNESSEE

CITY           SKY/WX    TMP DP  RH WIND       PRES   REMARKS
TRI CITIES     PTCLDY    34  29  82 CALM      30.33S
ELIZABETHTON   CLEAR     30  28  93 CALM      30.32S
$$

TNZ012-013-036-069-073-074-030300-
CENTRAL EAST TENNESSEE

CITY           SKY/WX    TMP DP  RH WIND       PRES   REMARKS
KNOXVILLE      MOCLDY    41  36  82 N7        30.31F
OAK RIDGE      MOCLDY    42  31  64 CALM      30.34S
GATLINBURG     CLEAR     37  36  93 CALM      30.31R
MORRISTOWN     CLEAR     37  36  93 NE3       30.31S
$$

TNZ083-085-099-030300-
SOUTHEAST TENNESSEE

CITY           SKY/WX    TMP DP  RH WIND       PRES   REMARKS
CHATTANOOGA    CLOUDY    49  38  65 NE6       30.31F
$$

SKY/WX REPORTED AS FAIR MEANS FEW OR NO CLOUDS BELOW
12 THOUSAND FEET.




USA.gov is the U.S. government's official web portal to all federal, state and local government web resources and services.